Theta_e
343 345 346 346 344 347 349 350 350 352 351 349 347 349 350 354 356 359 362 366 366 366 366 360 360 360 358 357 360 357 355 347 352 342 344 344 349 349 348 349 351 351 352
341 343 345 346 344 346 349 350 351 353 354 348 350 351 353 354 356 359 363 365 365 367 364 366 363 364 356 358 358 359 350 347 349 342 342 334 337 342 346 350 351 352 353
339 341 344 345 346 345 348 350 353 353 354 355 351 355 357 357 356 357 358 361 364 365 366 363 363 364 367 355 358 358 356 345 349 351 342 331 332 337 344 349 348 353 350
341 342 343 344 346 346 349 351 353 354 353 357 357 361 351 349 349 353 355 357 363 363 364 365 362 363 363 359 358 357 358 357 343 345 347 348 347 336 337 343 346 350 349
340 341 343 346 348 349 348 351 353 356 358 359 360 355 356 349 351 351 360 365 364 365 362 365 366 366 360 361 361 358 360 357 352 345 342 350 347 350 340 337 340 346 349
341 343 344 347 348 349 348 349 353 358 357 357 355 360 361 358 351 354 352 353 355 357 363 363 366 366 361 362 362 366 361 361 358 353 349 342 342 342 343 341 342 343 348
343 343 343 344 347 348 349 349 357 359 358 355 355 357 359 361 359 358 353 356 350 351 358 365 365 362 367 364 364 364 363 360 359 360 350 350 347 348 344 341 339 340 342
342 344 345 345 346 348 349 351 357 359 357 357 360 363 364 354 355 358 354 353 351 351 358 361 363 365 364 365 367 365 360 364 359 362 362 352 353 353 349 344 340 336 337
340 342 345 347 347 348 351 354 358 361 361 355 362 363 364 362 356 366 361 356 360 354 357 359 361 361 363 365 367 361 363 364 365 364 364 361 355 355 353 351 346 340 334
338 341 344 346 348 349 350 352 356 359 358 357 358 357 360 361 362 360 361 362 359 360 358 358 357 359 362 364 366 362 364 366 362 360 362 364 356 358 357 354 350 349 344
332 339 343 346 349 350 351 351 352 354 355 358 360 362 358 358 359 357 359 361 362 362 363 360 359 357 359 363 365 364 362 362 365 366 365 366 367 357 353 355 354 351 349
333 337 342 347 348 349 350 351 352 352 354 359 362 360 361 363 357 358 359 361 362 364 363 363 362 360 359 363 364 362 359 361 363 364 366 365 363 367 368 359 364 359 361
331 337 339 344 347 349 352 351 352 351 352 356 355 357 358 358 361 361 361 361 362 362 363 363 361 361 358 358 361 362 361 361 362 365 365 366 367 366 364 364 360 357 357
328 335 339 342 348 351 355 355 351 352 351 352 353 358 361 362 360 364 365 361 364 362 362 364 363 362 360 358 357 358 361 361 361 363 365 366 366 366 367 366 367 365 362
331 331 337 341 345 350 355 356 352 356 354 356 353 359 364 365 366 366 365 364 363 362 363 363 362 362 360 355 359 357 356 359 360 362 363 364 361 351 355 362 370 373 362
332 336 338 337 341 346 351 355 356 356 358 359 357 362 365 366 365 366 365 365 363 364 363 362 362 360 356 340 337 350 355 356 360 358 362 363 356 354 343 342 342 351 364
333 336 338 341 341 343 349 354 357 358 359 361 361 363 365 365 366 364 366 366 365 364 364 362 363 362 363 335 333 338 355 355 360 364 363 357 352 353 361 346 339 340 337
330 335 338 340 343 344 345 351 353 359 361 361 362 363 364 364 365 366 366 367 365 366 366 362 364 362 363 335 331 334 356 360 363 364 366 366 365 365 363 361 359 361 361
326 334 339 341 345 347 346 350 351 354 357 359 361 363 364 364 364 363 365 364 364 363 363 364 365 366 365 330 329 336 355 354 361 362 365 368 367 350 337 359 360 361 361
324 334 341 345 349 351 347 347 350 356 358 359 360 364 364 365 364 365 366 366 363 360 359 360 363 352 366 336 324 335 355 356 352 363 368 340 353 336 329 359 359 359 358
317 331 342 346 352 350 348 353 352 354 358 357 357 361 363 366 366 367 367 367 364 364 365 364 365 365 361 361 322 321 358 353 352 352 353 357 330 327 325 326 364 359 358
315 321 334 341 353 350 351 358 356 357 361 361 358 362 364 359 358 366 364 364 365 364 365 363 360 361 366 338 327 319 324 344 358 357 356 360 325 319 320 327 333 327 332
315 317 324 338 346 355 352 352 358 361 359 360 361 361 361 360 364 364 362 359 362 358 358 357 357 357 360 365 326 317 318 323 347 360 350 329 320 314 322 318 323 323 355
315 318 318 324 330 341 349 353 355 358 358 357 358 359 359 358 360 359 360 358 357 356 355 355 355 357 358 361 364 357 341 324 336 341 352 348 338 330 340 349 342 355 360
317 318 318 319 320 327 333 342 353 357 354 356 356 357 357 358 359 360 358 357 363 353 357 356 358 357 358 359 346 349 366 364 350 351 360 359 358 358 359 360 363 364 365
317 318 320 320 320 323 327 331 338 351 357 355 353 352 352 355 355 355 356 316 317 312 312 313 332 358 333 321 315 318 316 310 314 352 359 357 356 353 354 354 355 357 353
Wind_Speed
22 21 21 20 20 19 18 17 16 14 11 9 10 9 8 7 6 5 4 6 5 5 4 7 4 3 5 1 3 4 4 4 2 5 5 4 6 5 4 4 2 5 5
23 22 22 21 21 20 19 18 17 15 12 10 9 8 7 7 6 4 5 6 7 6 4 1 5 7 3 5 4 3 3 5 3 1 2 6 6 5 4 2 2 2 2
23 24 23 23 22 22 21 19 18 17 14 12 9 7 7 4 7 6 7 7 8 8 5 5 2 4 4 4 5 5 4 5 3 3 4 3 3 3 5 6 4 1 3
22 23 24 25 24 23 21 20 19 17 16 15 12 12 10 10 8 6 6 6 7 7 7 6 5 4 5 4 4 3 1 5 5 4 3 5 6 3 6 5 5 5 6
24 25 27 26 25 23 22 20 19 17 16 16 13 12 12 9 8 7 7 7 6 7 7 7 7 6 5 4 4 4 3 3 4 2 4 1 2 2 5 1 4 3 3
25 24 24 24 22 22 21 21 20 17 18 17 18 15 13 11 9 9 8 7 7 8 8 8 7 6 4 5 5 6 5 4 3 3 3 4 3 0 2 3 3 2 1
23 24 24 24 24 25 24 22 21 20 20 20 18 18 16 15 12 10 10 8 8 7 8 9 8 8 8 6 4 5 4 6 4 5 4 3 4 3 3 4 5 3 4
22 24 25 24 24 26 26 24 22 22 22 21 18 16 17 13 12 13 10 9 8 7 8 10 10 9 8 8 7 6 6 6 6 6 5 5 4 3 4 4 5 6 5
23 25 25 25 25 25 25 25 22 22 22 23 17 17 16 16 14 13 12 11 9 7 7 10 11 10 10 9 8 8 7 5 6 6 7 7 5 4 4 5 5 6 7
21 22 23 26 24 25 25 26 24 23 22 23 19 18 18 17 15 13 14 12 11 11 9 10 11 11 10 10 9 8 8 7 7 6 6 7 6 5 6 6 6 6 7
17 20 21 24 25 23 24 25 25 25 23 22 20 19 18 19 17 16 15 14 13 12 12 11 10 11 11 11 10 9 8 8 9 9 8 9 8 7 7 6 7 7 7
14 16 19 21 23 25 24 25 25 25 24 21 20 21 19 18 18 17 17 15 14 14 13 12 12 12 12 11 11 11 9 10 11 11 11 11 8 10 9 8 8 8 8
10 14 17 19 22 23 22 24 24 25 24 22 23 21 21 19 18 18 17 16 15 15 15 14 13 13 13 12 12 12 12 12 11 11 11 11 11 11 10 9 9 9 9
6 11 14 18 20 21 21 21 24 24 23 23 23 21 20 19 20 18 17 17 16 16 15 15 15 14 13 14 13 13 12 12 12 12 12 12 12 12 11 11 11 10 10
4 4 11 14 17 19 20 21 22 21 22 21 22 21 19 19 18 17 17 17 17 16 16 15 16 15 14 13 15 14 14 14 14 13 13 14 13 10 10 10 10 9 10
7 8 7 11 15 19 21 21 21 22 21 21 21 19 19 19 18 17 17 17 17 16 16 17 16 16 13 14 14 14 14 15 14 14 14 14 11 12 13 14 16 14 12
9 10 10 11 13 17 19 22 21 20 21 20 20 19 19 19 19 18 17 17 17 16 17 17 17 17 16 12 14 16 15 14 14 14 13 14 13 13 15 15 17 16 18
12 12 12 12 14 15 18 19 21 20 20 19 19 19 19 19 18 18 18 17 16 16 15 16 17 16 15 13 15 15 16 14 16 16 15 15 15 14 13 15 16 16 15
14 14 14 15 15 16 17 18 20 21 21 21 21 20 20 19 18 19 18 16 16 15 16 16 16 17 16 15 17 15 16 17 17 16 17 16 17 15 13 16 16 17 15
14 16 17 16 16 17 19 20 22 20 22 23 22 19 19 19 19 18 17 16 16 16 15 17 17 17 17 14 16 17 13 14 14 14 15 16 19 12 13 16 16 16 15
16 17 13 13 16 13 19 19 20 23 21 19 20 18 18 17 17 16 15 15 15 14 14 14 14 16 16 16 17 20 15 13 13 14 13 13 19 21 18 16 16 15 11
17 18 12 11 13 8 13 14 16 14 15 16 18 17 17 15 15 16 15 15 14 14 13 14 13 13 14 16 15 20 22 15 14 14 12 12 11 16 17 14 16 11 11
13 16 14 11 13 14 6 11 12 14 16 16 16 16 16 16 13 15 14 13 14 13 14 13 12 12 12 13 18 18 20 21 14 13 9 6 5 9 10 13 10 11 10
13 13 13 15 15 12 11 8 4 10 14 15 15 15 15 15 14 13 13 13 13 13 13 13 12 12 11 11 10 12 11 15 12 17 14 12 9 8 10 7 10 10 11
9 11 13 13 15 13 13 11 9 11 13 14 14 14 12 13 13 12 11 12 12 11 12 12 11 11 11 11 10 8 10 10 13 12 11 12 11 10 9 11 12 11 9
7 8 10 11 14 12 13 14 13 9 6 9 9 10 10 10 10 10 9 9 11 12 8 4 3 10 3 8 6 9 7 1 9 9 11 9 7 9 10 10 11 11 10
Wind_Direction
186 185 191 187 188 189 185 189 192 189 189 193 196 189 194 191 200 212 190 176 184 186 197 133 149 140 230 341 159 160 147 128 144 157 142 145 175 186 158 179 189 131 209
188 191 191 191 193 191 190 189 193 191 197 195 205 202 202 193 205 183 167 185 179 179 184 221 160 148 174 162 190 215 180 121 145 305 231 159 158 168 195 171 239 286 218
191 191 193 196 195 193 194 193 192 190 195 203 197 192 193 215 198 184 188 181 185 185 193 192 274 144 173 196 215 192 250 140 151 297 316 196 103 178 160 178 215 205 235
197 192 195 198 198 198 195 195 196 193 193 195 192 197 200 202 202 203 190 177 196 195 192 190 194 222 202 181 207 195 251 277 141 166 208 352 6 338 145 155 170 209 225
195 197 197 199 200 197 196 195 195 198 198 191 212 194 220 205 199 209 190 225 176 208 205 202 188 196 194 184 181 191 237 192 310 193 166 140 192 166 318 57 129 196 182
199 202 199 199 200 199 198 194 193 197 201 195 201 205 206 226 209 202 199 217 210 197 209 206 203 195 209 195 201 182 202 278 265 247 240 247 282 290 266 256 237 340 243
201 201 199 197 198 199 197 197 192 196 197 201 199 204 210 207 212 207 211 222 214 214 197 211 208 196 201 207 215 193 187 201 225 224 231 235 256 290 299 294 286 287 300
206 203 201 199 197 200 198 199 190 194 195 199 202 201 204 210 215 211 235 219 229 222 218 202 222 213 215 205 201 206 224 171 207 218 248 266 242 237 264 285 303 291 281
204 205 202 202 199 197 199 196 193 195 194 197 199 202 203 217 216 224 213 232 233 240 223 219 219 220 213 216 215 230 204 224 213 207 221 243 252 226 251 255 266 285 292
206 206 203 201 201 199 199 198 198 196 196 195 199 204 207 208 219 216 223 225 230 220 241 212 220 213 210 210 215 227 216 225 232 231 210 243 255 236 231 249 249 251 269
208 208 204 203 203 200 198 199 199 200 202 199 197 204 205 208 211 218 220 221 221 220 221 218 219 217 215 209 211 232 252 222 227 239 236 230 245 256 248 234 241 253 252
213 205 205 201 200 201 199 197 198 200 201 200 197 198 201 205 207 215 220 217 218 215 221 220 216 221 219 215 214 219 230 227 232 231 235 237 236 228 244 259 254 267 270
248 215 202 196 201 201 202 201 200 199 197 198 198 200 203 205 208 211 213 215 214 216 218 219 218 220 222 221 220 226 228 235 237 237 234 238 238 242 255 251 257 245 236
300 226 208 203 199 201 198 202 202 201 198 194 198 197 199 201 204 207 208 209 210 214 218 218 218 220 221 223 226 224 228 236 239 240 243 242 242 246 248 246 249 252 264
321 243 231 213 206 202 202 200 205 201 198 193 197 196 195 199 203 204 204 205 208 212 218 219 220 220 222 222 220 230 231 234 240 243 243 240 244 254 255 257 243 249 251
308 298 270 249 222 211 205 201 204 202 199 193 197 193 194 196 200 201 202 204 207 211 212 218 220 221 227 213 206 220 226 233 238 243 244 247 237 236 232 241 253 267 272
308 303 290 270 254 222 208 208 204 201 198 195 194 193 192 197 199 198 201 203 205 208 213 216 219 222 225 216 199 200 228 237 235 239 244 249 248 227 247 229 229 241 243
318 307 293 276 259 249 218 206 201 199 197 199 195 194 194 197 197 197 202 202 204 206 210 215 220 224 225 212 199 193 225 233 240 246 243 241 248 250 252 250 253 254 253
316 302 289 279 265 251 230 202 203 195 195 198 196 196 192 193 195 199 201 203 206 207 212 215 217 221 229 200 196 189 226 234 237 241 242 243 246 243 220 244 256 261 262
328 314 304 290 265 235 234 199 197 195 197 197 195 194 193 192 194 196 197 199 204 210 213 217 218 221 229 208 191 194 227 232 236 234 236 232 244 242 205 233 249 255 260
338 326 323 311 305 228 217 191 193 202 198 194 193 193 195 196 194 193 196 197 202 209 214 217 217 222 221 231 188 190 222 234 229 239 241 238 206 220 225 221 244 251 273
356 352 344 347 326 262 209 182 195 191 191 196 194 191 190 195 192 197 198 202 203 209 213 216 225 219 224 217 199 192 208 229 238 243 244 245 192 203 217 220 239 250 263
356 357 354 24 15 1 195 186 189 190 193 193 191 187 190 194 194 192 197 199 202 216 209 213 221 225 220 220 203 189 201 222 241 245 250 332 150 201 213 226 237 226 242
347 352 13 28 27 22 35 19 181 201 190 190 186 183 187 191 202 190 196 206 204 206 218 211 215 215 218 218 215 197 200 225 214 241 256 258 273 276 275 248 212 230 241
343 358 10 14 24 22 29 26 348 188 189 188 182 180 184 188 193 209 202 207 219 214 210 217 214 214 216 217 217 221 200 201 205 223 226 233 229 236 237 242 248 253 239
340 1 6 9 9 19 23 23 10 13 137 162 173 176 175 170 196 193 204 64 27 9 12 43 276 214 201 76 172 194 232 7 136 196 230 218 222 225 232 230 233 236 229